Weather reports worldwide

Advertisment
Dalwhinnie, United Kingdom (99005): temperature & dewpoint: 11.08.2017 08:00:00 - 17.08.2017 08:00:00 (BST)Dalwhinnie, United Kingdom (99005): wind speed: 11.08.2017 08:00:00 - 17.08.2017 08:00:00 (BST)Dalwhinnie, United Kingdom (99005): wind direction: 11.08.2017 08:00:00 - 17.08.2017 08:00:00 (BST)Dalwhinnie, United Kingdom (99005): visibility: 11.08.2017 08:00:00 - 17.08.2017 08:00:00 (BST)Dalwhinnie, United Kingdom (99005): precipitation: 11.08.2017 08:00:00 - 17.08.2017 08:00:00 (BST)
Date & Time tt [°C] td [°C] ff [km/h] ff [kn] dd vv [km] rr [mm]
17.08.2017 08:00:00 11,4 9,5 - - - - 0,0
17.08.2017 07:00:00 11,0 9,8 - - - - 0,0
17.08.2017 06:00:00 11,0 9,4 - - - - 0,0
17.08.2017 05:00:00 9,1 8,1 - - - - 0,0
17.08.2017 04:00:00 10,6 9,2 - - - - 0,0
17.08.2017 03:00:00 11,4 10,2 - - - - 0,0
17.08.2017 02:00:00 12,1 11,2 - - - - 0,2
17.08.2017 01:00:00 12,5 11,3 - - - - 0,4
17.08.2017 00:00:00 14,5 12,6 - - - - 0,0
16.08.2017 23:00:00 14,1 12,7 - - - - 1,2
16.08.2017 22:00:00 13,7 12,6 - - - - 0,6
16.08.2017 21:00:00 14,0 12,4 - - - - 0,2
16.08.2017 20:00:00 13,6 12,2 - - - - 1,4
16.08.2017 19:00:00 13,9 11,9 - - - - 0,6
16.08.2017 18:00:00 14,3 10,9 - - - - 0,0
16.08.2017 17:00:00 14,2 10,5 - - - - 0,0
16.08.2017 16:00:00 13,5 10,7 - - - - 0,2
16.08.2017 15:00:00 13,8 10,7 - - - - 0,0
16.08.2017 14:00:00 13,3 9,0 - - - - 0,0
16.08.2017 13:00:00 13,0 8,8 - - - - 0,0
16.08.2017 12:00:00 14,0 8,9 - - - - 0,0
16.08.2017 11:00:00 13,4 9,0 - - - - 0,0
16.08.2017 10:00:00 13,2 8,9 128 69 N 13 0,0
16.08.2017 09:00:00 11,6 8,1 - - - - 0,0
16.08.2017 08:00:00 11,0 7,9 - - - - 0,0
16.08.2017 07:00:00 9,8 7,5 - - - - 0,0
16.08.2017 06:00:00 10,2 8,3 - - - - 0,0
16.08.2017 05:00:00 9,9 8,0 - - - - 0,0
16.08.2017 04:00:00 9,6 7,4 - - - - 0,0
16.08.2017 03:00:00 9,7 8,4 - - - - 0,0
16.08.2017 02:00:00 9,9 8,1 - - - - 0,0
16.08.2017 01:00:00 9,9 8,2 - - - - 0,0
16.08.2017 00:00:00 10,4 9,1 - - - - 0,0
15.08.2017 23:00:00 10,5 8,3 - - - - 0,0
15.08.2017 22:00:00 11,2 7,8 - - - - 0,0
15.08.2017 21:00:00 10,6 7,5 - - - - 0,0
15.08.2017 20:00:00 11,9 8,5 - - - - 0,0
15.08.2017 19:00:00 11,9 10,0 - - - - 0,4
15.08.2017 18:00:00 12,5 9,4 - - - - 0,0
15.08.2017 17:00:00 13,6 9,5 - - - - 0,0
15.08.2017 16:00:00 14,4 9,9 - - - - 0,0
15.08.2017 15:00:00 14,6 8,1 - - - - 0,0
15.08.2017 14:00:00 13,1 9,2 - - - - 0,0
15.08.2017 13:00:00 14,0 8,8 - - - - 0,0
15.08.2017 12:00:00 13,4 9,4 - - - - 0,0
15.08.2017 11:00:00 12,9 8,5 - - - - 0,0
15.08.2017 10:00:00 12,7 8,5 - - - 10 0,0
15.08.2017 09:00:00 12,4 8,6 - - - - 0,0
15.08.2017 08:00:00 11,0 8,5 - - - - 0,0
15.08.2017 07:00:00 10,0 7,9 - - - - 0,0
15.08.2017 06:00:00 10,4 8,1 - - - - 0,0
15.08.2017 05:00:00 11,7 8,6 - - - - 0,0
15.08.2017 04:00:00 11,4 10,0 - - - - 0,0
15.08.2017 03:00:00 11,5 10,8 - - - - 0,0
15.08.2017 02:00:00 12,0 11,1 - - - - 0,0
15.08.2017 01:00:00 12,0 11,3 - - - - 0,0
15.08.2017 00:00:00 12,2 11,5 - - - - 0,0
14.08.2017 23:00:00 12,5 11,7 - - - - 0,0
14.08.2017 22:00:00 12,8 12,1 - - - 10 2,4
14.08.2017 21:00:00 13,5 11,9 - - - - 0,0
14.08.2017 20:00:00 13,9 12,3 - - - - 0,0
14.08.2017 19:00:00 14,3 12,6 - - - - 0,4
14.08.2017 18:00:00 14,3 12,4 - - - - 0,2
14.08.2017 17:00:00 14,6 12,4 - - - - 0,4
14.08.2017 16:00:00 14,2 12,1 - - - - 0,2
14.08.2017 15:00:00 14,1 12,2 - - - - 0,4
14.08.2017 14:00:00 13,2 11,1 - - - - 0,4
14.08.2017 13:00:00 12,7 10,8 - - - - 0,0
14.08.2017 12:00:00 12,0 10,4 - - - - 0,2
14.08.2017 11:00:00 11,1 9,3 - - - - 0,0
14.08.2017 10:00:00 10,4 8,6 122 66 N 5 0,2
14.08.2017 09:00:00 9,8 7,7 - - - - 0,4
14.08.2017 08:00:00 9,3 7,9 - - - - 0,8
14.08.2017 07:00:00 9,5 7,2 - - - - 0,0
14.08.2017 06:00:00 10,1 6,9 - - - - 0,0
14.08.2017 05:00:00 9,4 6,3 - - - - 0,0
14.08.2017 04:00:00 9,7 6,3 - - - - 0,0
14.08.2017 03:00:00 9,2 6,4 - - - - 0,0
14.08.2017 02:00:00 7,8 6,7 - - - - 0,0
14.08.2017 01:00:00 7,1 6,0 - - - - 0,0
14.08.2017 00:00:00 7,2 5,7 - - - - 0,0
13.08.2017 23:00:00 8,5 6,6 - - - - 0,0
13.08.2017 22:00:00 10,2 8,5 - - - - 0,0
13.08.2017 21:00:00 11,4 7,4 - - - - 0,0
13.08.2017 20:00:00 11,8 8,0 - - - - 0,0
13.08.2017 19:00:00 12,3 8,0 - - - - 0,0
13.08.2017 18:00:00 12,5 7,1 - - - - 0,0
13.08.2017 17:00:00 11,4 8,9 - - - - 0,8
13.08.2017 16:00:00 12,1 8,4 - - - - 0,2
13.08.2017 15:00:00 12,2 8,6 - - - - 0,0
13.08.2017 14:00:00 11,2 8,8 - - - - 0,6
13.08.2017 13:00:00 11,1 8,5 - - - - 0,0
13.08.2017 12:00:00 11,8 6,7 - - - - 0,0
13.08.2017 11:00:00 11,8 7,3 - - - - 0,0
13.08.2017 10:00:00 11,5 7,9 - - - - 0,0
13.08.2017 09:00:00 9,5 7,2 - - - - 0,0
13.08.2017 08:00:00 8,3 7,2 - - - - 0,0
13.08.2017 07:00:00 5,3 4,6 - - - - 0,0
13.08.2017 06:00:00 5,8 4,5 - - - - 0,0
13.08.2017 05:00:00 7,3 5,8 - - - - 0,0
13.08.2017 04:00:00 6,0 4,6 - - - - 0,0
13.08.2017 03:00:00 7,1 4,7 - - - - 0,0
13.08.2017 02:00:00 8,5 5,9 - - - - 0,0
13.08.2017 01:00:00 8,7 6,3 - - - - 0,0
13.08.2017 00:00:00 9,1 6,4 - - - - 0,0
12.08.2017 23:00:00 9,5 6,3 - - - - 0,0
12.08.2017 22:00:00 9,8 6,6 - - - - 0,0
12.08.2017 21:00:00 10,6 6,2 - - - - 0,0
12.08.2017 20:00:00 11,1 7,0 - - - - 0,4
12.08.2017 19:00:00 12,4 6,6 - - - - 0,0
12.08.2017 18:00:00 12,9 6,0 - - - - 0,0
12.08.2017 17:00:00 12,3 7,5 - - - - 0,4
12.08.2017 16:00:00 13,1 7,2 - - - - 0,0
12.08.2017 15:00:00 11,1 7,6 - - - - 0,0
12.08.2017 14:00:00 11,8 7,9 - - - - 0,8
12.08.2017 13:00:00 11,8 8,9 - - - - 0,2
12.08.2017 12:00:00 12,3 7,1 - - - - 0,0
12.08.2017 11:00:00 12,4 5,4 - - - - 0,0
12.08.2017 10:00:00 11,2 7,3 178 96 N 55 0,0
12.08.2017 09:00:00 11,8 7,3 - - - - 0,0
12.08.2017 08:00:00 10,0 8,7 - - - - 0,0
12.08.2017 07:00:00 9,0 8,3 - - - - 0,0
12.08.2017 06:00:00 9,1 8,5 - - - - 0,2
12.08.2017 05:00:00 9,8 9,1 - - - - 0,2
12.08.2017 04:00:00 10,0 9,3 - - - - 0,6
12.08.2017 03:00:00 10,5 9,4 - - - - 0,2
12.08.2017 02:00:00 11,7 10,0 - - - - 0,0
12.08.2017 01:00:00 11,3 10,1 - - - - 0,0
12.08.2017 00:00:00 11,5 9,8 - - - - 0,0
11.08.2017 23:00:00 11,7 9,7 - - - - 0,0
11.08.2017 22:00:00 11,4 9,9 - - - - 0,0
11.08.2017 21:00:00 12,0 10,0 - - - - 0,2
11.08.2017 20:00:00 12,9 10,1 - - - - 0,0
11.08.2017 19:00:00 13,2 10,4 - - - - 0,0
11.08.2017 18:00:00 13,2 10,7 - - - - 0,2
11.08.2017 17:00:00 13,6 11,8 - - - - 0,4
11.08.2017 16:00:00 14,2 11,6 - - - - 0,6
11.08.2017 15:00:00 14,8 13,1 - - - - 0,2
11.08.2017 14:00:00 13,8 11,9 - - - - 0,8
11.08.2017 13:00:00 14,5 13,6 - - - - 0,4
11.08.2017 12:00:00 14,2 13,0 - - - - 0,0
11.08.2017 11:00:00 13,5 12,3 - - - - 0,0
11.08.2017 10:00:00 12,7 11,7 2 1 N 60 0,0
11.08.2017 09:00:00 12,3 11,0 - - - - 0,2
11.08.2017 08:00:00 11,8 10,7 - - - - 0,2

tt = temperature
td = dewpoint
ff = wind speed
dd = wind direction
vv = visibility
rr = precipitation

Next stations